EW0641 Weather Reports


Display with metric or nautical units.
time (UTC)temp
F
wind
direction
speed
MPH
gust
MPH
rain 1hr
in
rain 24hr
in
rain mn
in
humidity
%
barometer
mb
20260509103002 52 211 0.0 0.0 0.00 0.00 0.00 93 1005.0
20260509101502 51 215 0.0 0.0 0.00 0.00 0.00 93 1004.8
20260509100059 51 220 0.0 0.0 0.00 0.00 0.00 92 1004.7
20260509094559 52 219 0.0 0.0 0.00 0.00 0.00 92 1004.9
20260509093058 52 219 0.0 0.0 0.00 0.00 0.00 92 1004.8
20260509091606 52 219 0.0 0.0 0.00 0.00 0.00 92 1005.1
20260509090054 52 219 0.0 0.0 0.00 0.00 0.00 92 1005.3
20260509084554 52 218 0.0 0.0 0.00 0.00 0.00 91 1005.3
20260509083052 52 219 0.0 0.0 0.00 0.00 0.00 91 1005.4
20260509081553 52 219 0.0 0.0 0.00 0.00 0.00 90 1005.5
20260509080051 52 219 0.0 0.0 0.00 0.00 0.00 90 1005.4
20260509074553 52 219 0.0 0.0 0.00 0.00 0.00 90 1005.4
20260509073049 52 219 0.0 0.0 0.00 0.00 0.00 90 1005.6
20260509071550 52 214 0.0 0.0 0.00 0.00 0.00 90 1005.7
20260509070044 52 215 0.0 0.0 0.00 0.00 0.00 90 1005.8
20260509064550 51 217 0.0 0.0 0.00 0.00 0.00 89 1006.0
20260509063043 52 217 0.0 0.0 0.00 0.00 0.00 89 1006.0
20260509061546 52 217 0.0 0.0 0.00 0.00 0.00 88 1006.1
20260509060037 53 217 0.0 0.0 0.00 0.00 0.00 87 1006.3
20260509054542 53 217 0.0 0.0 0.00 0.00 0.00 87 1006.4
20260509053037 54 217 0.0 0.0 0.00 0.00 0.00 86 1006.6
20260509051531 54 217 0.0 0.0 0.00 0.00 0.00 86 1006.6
20260509050048 54 217 0.0 0.0 0.00 0.00 0.00 86 1006.7
20260509044527 54 217 0.0 0.0 0.00 0.00 0.00 85 1006.9
20260509043026 54 217 0.0 0.0 0.00 0.00 0.00 85 1007.0
20260509041525 55 217 0.0 0.0 0.00 0.00 0.00 84 1007.1
20260509040023 55 217 0.0 0.0 0.00 0.00 0.00 83 1007.1
20260509034521 55 217 0.0 0.0 0.00 0.00 0.00 82 1007.1
20260509033022 55 216 0.0 0.0 0.00 0.00 0.00 82 1007.2
20260509031524 55 216 0.0 0.0 0.00 0.00 0.00 82 1007.3
20260509030032 55 216 0.0 0.0 0.00 0.00 0.00 82 1007.3
20260509024520 55 216 0.0 0.0 0.00 0.00 0.00 83 1007.5
20260509023027 55 214 0.0 0.0 0.00 0.00 0.00 83 1007.5
20260509021520 56 212 0.0 0.0 0.00 0.00 0.00 84 1007.3
20260509020019 56 219 0.0 0.0 0.00 0.00 0.00 83 1007.3
20260509014518 56 202 0.0 0.0 0.00 0.00 0.00 81 1007.1
20260509013017 56 185 0.0 0.0 0.00 0.00 0.00 81 1007.0
20260509011518 57 198 0.0 0.0 0.00 0.00 0.00 80 1006.9
20260509010016 57 192 0.0 0.0 0.00 0.00 0.00 78 1006.6
20260509004528 58 252 0.0 0.0 0.00 0.00 0.00 76 1006.5
20260509003016 58 191 0.0 0.0 0.00 0.00 0.00 74 1006.4
20260509001515 59 211 0.0 0.0 0.00 0.00 0.00 72 1006.4
20260509000023 60 213 0.0 0.0 0.00 0.00 0.00 71 1006.5
20260508234514 61 225 0.0 0.0 0.00 0.00 0.00 68 1006.3
20260508233014 62 210 0.0 0.0 0.00 0.00 0.00 67 1006.4
20260508231513 62 238 0.0 0.0 0.00 0.00 0.00 67 1006.4
20260508230012 62 217 0.0 0.0 0.00 0.00 0.00 70 1006.5
20260508224510 61 221 0.0 0.0 0.00 0.00 0.00 70 1006.5
20260508223009 61 190 0.0 0.0 0.00 0.00 0.00 68 1006.7
20260508221507 61 214 0.0 0.0 0.00 0.00 0.00 67 1006.9
20260508220006 62 261 0.0 0.0 0.00 0.00 0.00 60 1007.0
20260508214506 62 227 0.0 0.0 0.00 0.00 0.00 60 1007.0
20260508213015 62 226 0.0 0.0 0.00 0.00 0.00 61 1007.1
20260508211506 62 207 0.0 0.0 0.00 0.00 0.00 58 1007.1
20260508210007 63 237 0.0 0.0 0.00 0.00 0.00 59 1007.2
20260508204503 62 215 0.0 0.0 0.00 0.00 0.00 57 1007.4
20260508203002 63 206 0.0 0.0 0.00 0.00 0.00 57 1007.6
20260508201610 63 198 0.0 0.0 0.00 0.00 0.00 56 1007.9
20260508200057 63 213 0.0 0.0 0.00 0.00 0.00 53 1008.1
20260508194621 61 224 0.0 0.0 0.00 0.00 0.00 57 1008.2
20260508193052 62 234 0.0 0.0 0.00 0.00 0.00 55 1008.7
20260508191551 62 205 0.0 0.0 0.00 0.00 0.00 55 1008.8
20260508190049 61 254 0.0 0.0 0.00 0.00 0.00 54 1009.0
20260508184548 62 240 0.0 0.0 0.00 0.00 0.00 54 1009.1
20260508183046 63 248 0.0 0.0 0.00 0.00 0.00 50 1009.2
20260508181605 62 163 0.0 0.0 0.00 0.00 0.00 49 1009.3
20260508180050 61 234 0.0 0.0 0.00 0.00 0.00 47 1009.7
20260508174544 63 221 0.0 0.0 0.00 0.00 0.00 47 1009.8
20260508173041 62 284 0.0 0.0 0.00 0.00 0.00 49 1010.1
20260508171536 60 5 0.0 0.0 0.00 0.00 0.00 46 1010.4
20260508170034 61 207 0.0 0.0 0.00 0.00 0.00 47 1010.7
20260508164530 60 232 0.0 0.0 0.00 0.00 0.00 48 1010.8
20260508163029 60 304 0.0 0.0 0.00 0.00 0.00 46 1011.1
20260508161530 59 5 0.0 0.0 0.00 0.00 0.00 51 1011.2
20260508160028 59 24 0.0 0.0 0.00 0.00 0.00 56 1011.2
20260508154520 57 29 0.0 0.0 0.00 0.00 0.00 54 1011.3
20260508153023 57 17 0.0 0.0 0.00 0.00 0.00 56 1011.4
20260508151518 56 51 0.0 0.0 0.00 0.00 0.00 55 1011.5
20260508150016 56 13 0.0 0.0 0.00 0.00 0.00 56 1011.7
20260508144513 55 56 0.0 0.0 0.00 0.00 0.00 58 1011.7
20260508143020 55 20 0.0 0.0 0.00 0.00 0.00 60 1011.8
20260508141511 54 26 0.0 0.0 0.00 0.00 0.00 63 1012.0
20260508140010 54 143 0.0 0.0 0.00 0.00 0.00 65 1012.1
20260508134508 54 143 0.0 0.0 0.00 0.00 0.00 67 1012.0
20260508133010 54 142 0.0 0.0 0.00 0.00 0.00 67 1012.1
20260508131505 53 142 0.0 0.0 0.00 0.00 0.00 71 1012.1
20260508130002 51 166 0.0 0.0 0.00 0.00 0.00 72 1012.0
20260508124501 51 163 0.0 0.0 0.00 0.00 0.00 72 1011.9
20260508123108 50 242 0.0 0.0 0.00 0.00 0.00 72 1012.0
20260508121559 50 336 0.0 0.0 0.00 0.00 0.00 74 1011.9
20260508120058 49 351 0.0 0.0 0.00 0.00 0.00 76 1011.7
20260508114557 48 351 0.0 0.0 0.00 0.00 0.00 84 1011.6
20260508113056 45 350 0.0 0.0 0.00 0.00 0.00 89 1011.4
20260508111602 43 350 0.0 0.0 0.00 0.00 0.00 89 1011.2
20260508104554 43 350 0.0 0.0 0.00 0.00 0.00 88 1011.1